Regional Weather Roundup
Issued by NWS

Home | Current Version | Previous Version | Graphics & Text | Print | Product List | Glossary On
Versions: 1 2 3 4 5 6 7 8 9 10 11 12 13 14 15 16 17 18 19 20 21 22 23 24 25 26 27 28 29 30 31 32 33 34 35 36 37 38 39 40 41 42 43 44 45 46 47 48 49 50
000
ASUS43 KOAX 221702
RWRNE

WEATHER ROUNDUP FOR NEBRASKA
NATIONAL WEATHER SERVICE OMAHA NE
1200 PM CDT TUE APR 22 2014

NOTES: SATELLITE DATA IS BEING USED TO AUGMENT CLOUD COVER ABOVE
       12000 FEET.
       "FAIR" INDICATES FEW OR NO CLOUDS BELOW 12,000 FEET WITH NO
       SIGNIFICANT WEATHER AND/OR OBSTRUCTIONS TO VISIBILITY.

  * THESE STATIONS DO NOT REPORT WEATHER SUCH AS RAIN...SNOW OR FOG.

NEZ001>004-019>022-054>056-221800-
NEBRASKA PANHANDLE

CITY           SKY/WX    TMP DP  RH WIND       PRES   REMARKS
SCOTTSBLUFF    PTSUNNY   67  44  43 S13G22    29.88F
ALLIANCE       PTSUNNY   66  40  38 S26       29.90F
CHADRON        CLOUDY    68  43  40 S17G24    29.82F
KIMBALL        PTSUNNY   64  41  43 S16       29.92F
SIDNEY         MOSUNNY   67  39  35 S23G31    29.93F
$$

NEZ057>060-069>072-079>082-221800-
SOUTHWEST NEBRASKA

CITY           SKY/WX    TMP DP  RH WIND       PRES   REMARKS
NORTH PLATTE   MOSUNNY   64  28  25 S21G31    30.01F
IMPERIAL       MOSUNNY   68  30  24 S25G39    29.99F
LEXINGTON      SUNNY     64  30  27 S28       30.05F
MCCOOK         SUNNY     68  30  24 SE25G33   30.03F
OGALLALA       PTSUNNY   66  31  26 S24G39    29.95F
$$

NEZ005>010-023>029-035>040-094-221800-
NORTH CENTRAL NEBRASKA

CITY           SKY/WX    TMP DP  RH WIND       PRES   REMARKS
VALENTINE      SUNNY     67  26  21 S25G37    29.95F
AINSWORTH      SUNNY     65  29  25 S22G31    29.99F
BROKEN BOW     SUNNY     64  33  31 S23       30.05F
O`NEILL        PTSUNNY   62  25  24 SE15      30.08F
ORD            CLOUDY    61  32  33 SE15G24   30.07F
THEDFORD       SUNNY     67  24  19 S25G37    29.99F
$$

NEZ041-046>049-061>064-073>077-083>087-221800-
SOUTH CENTRAL NEBRASKA

CITY           SKY/WX    TMP DP  RH WIND       PRES   REMARKS
GRAND ISLAND   PTSUNNY   64  32  30 S17       30.12F
AURORA         SUNNY     62  33  32 SE12      30.13R
HASTINGS       CLOUDY    62  31  31 S12       30.11F
HOLDREGE       PTSUNNY   64  31  28 S22       30.08F
KEARNEY *      MOSUNNY   64  34  32 S20       30.10F
YORK           SUNNY     59  32  36 SE13G21   30.13F
$$

NEZ011>018-030>034-042>045-221800-
NORTHEAST NEBRASKA

CITY           SKY/WX    TMP DP  RH WIND       PRES   REMARKS
NORFOLK        MOSUNNY   61  28  28 SE14      30.13F
ALBION         SUNNY     61  28  29 SE13      30.12F
BLAIR          SUNNY     59  30  33 E7        30.14F
COLUMBUS *     SUNNY     55  34  44 SE9G16    30.15F
FREMONT        SUNNY     62  29  29 E7        30.15F
TEKAMAH        SUNNY     62  29  28 E10       30.15F
$$

NEZ050>053-065>068-078-088>093-221800-
SOUTHEAST NEBRASKA

CITY           SKY/WX    TMP DP  RH WIND       PRES   REMARKS
LINCOLN        SUNNY     61  31  32 SE7       30.17F
OMAHA EPPLEY   MOSUNNY   60  32  34 SE8       30.16F
BEATRICE       SUNNY     62  29  28 E8        30.15F
FALLS CITY     SUNNY     62  31  31 E13G21    30.14F
NEBRASKA CITY  SUNNY     61  32  33 E8        30.15F
PLATTSMOUTH    SUNNY     60  28  29 E6G16     30.15F
$$

NEZ044-045-051>053-067-221800-
OMAHA AREA

CITY           SKY/WX    TMP DP  RH WIND       PRES   REMARKS
OMAHA EPPLEY   MOSUNNY   60  32  34 SE8       30.16F
BLAIR          SUNNY     59  30  33 E7        30.14F
FREMONT        SUNNY     62  29  29 E7        30.15F
MILLARD        SUNNY     59  32  36 E7        30.15F
OFFUTT AFB     SUNNY     61  34  36 NE8       30.15F
PLATTSMOUTH    SUNNY     60  28  29 E6G16     30.15F
WAHOO          FAIR      61  26  26 SE9       30.15F
$$



USA.gov is the U.S. government's official web portal to all federal, state and local government web resources and services.